Weather History for Kansas City International, MO

Change the Weather History Date:

Monday, December 10, 2012

  Actual Average Record
Temperature  
Mean Temperature 22 °F 32 °F  
Max Temperature 30 °F 41 °F 69 °F (1970)
Min Temperature 14 °F 24 °F -5 °F (1919)
Degree Days  
Heating Degree Days 43 32  
Month to date heating degree days 195 308  
Since 1 July heating degree days 1142 1310  
Cooling Degree Days 0 0  
Month to date cooling degree days 0 0  
Year to date cooling degree days 1839 1360  
Moisture  
Dew Point 8 °F    
Average Humidity 52    
Maximum Humidity 67    
Minimum Humidity 37    
Precipitation  
Precipitation 0.00 in 0.05 in 0.85 in (1982)
Month to date precipitation 0.02 0.58  
Year to date precipitation 20.96 37.91  
Snow  
Snow 0.00 in 0.20 in 2.60 in (1955)
Month to date snowfall 0.0 1.4  
Since 1 July snowfall T 2.8  
Snow Depth 0.00 in    
Sea Level Pressure  
Sea Level Pressure 30.06 in    
Wind  
Wind Speed 10 mph (West)    
Max Wind Speed 20 mph    
Max Gust Speed 26 mph    
Visibility 10 miles    
Events      
T = Trace of Precipitation, MM = Missing Value Source: NWS Daily Summary

Daily Weather History Graph

Daily Weather History Graph

Search for Another Location

Airport:

Trip Planner

Search our weather history database for the weather conditions in past years. The results will help you decide how hot, cold, wet, or windy it might be!

Date:

Astronomy

Dec. 10, 2012 Rise Set
Actual Time 7:28 AM CST 4:55 PM CST
Civil Twilight 6:58 AM CST 5:25 PM CST
Nautical Twilight 6:24 AM CST 5:59 PM CST
Astronomical Twilight 5:51 AM CST 6:31 PM CST
Moon 4:13 AM CST (12/10) 2:45 PM CST (12/10)
Length of Visible Light 10h 27m
Length of Day
9h 27m
Waning Crescent, 10% of the Moon is Illuminated
Dec 10
Waning Crescent
Dec 13
New
Dec 19
First Quarter
Dec 28
Full
Jan 4
Last Quarter

Hourly Weather History & Observations

Time (CST) Temp. Windchill Dew Point Humidity Pressure Visibility Wind Dir Wind Speed Gust Speed Precip Events Conditions
12:53 AM 19.9 °F 5.7 °F 8.1 °F 60% 30.07 in 10.0 mi NW 16.1 mph 24.2 mph N/A   Overcast
1:42 AM 19.4 °F 7.9 °F 8.6 °F 63% 30.04 in 10.0 mi NW 10.4 mph 20.7 mph N/A   Overcast
1:53 AM 19.9 °F 6.2 °F 9.0 °F 62% 30.06 in 10.0 mi NW 15.0 mph 23.0 mph N/A   Overcast
2:53 AM 19.0 °F 4.0 °F 9.0 °F 65% 30.06 in 10.0 mi NW 17.3 mph 23.0 mph N/A   Overcast
3:53 AM 18.0 °F 5.4 °F 9.0 °F 68% 30.07 in 10.0 mi NW 11.5 mph 21.9 mph N/A   Overcast
4:53 AM 19.0 °F 6.1 °F 7.0 °F 59% 30.08 in 10.0 mi NW 12.7 mph 21.9 mph N/A   Overcast
5:53 AM 19.0 °F 6.8 °F 8.1 °F 62% 30.08 in 10.0 mi NW 11.5 mph - N/A   Overcast
6:17 AM 19.4 °F 6.6 °F 8.6 °F 63% 30.05 in 10.0 mi NW 12.7 mph - N/A   Overcast
6:53 AM 18.0 °F 5.4 °F 6.1 °F 60% 30.11 in 10.0 mi NW 11.5 mph - N/A   Overcast
7:53 AM 18.0 °F 5.4 °F 6.1 °F 60% 30.12 in 10.0 mi NW 11.5 mph - N/A   Overcast
8:53 AM 18.0 °F 6.1 °F 7.0 °F 62% 30.13 in 10.0 mi WNW 10.4 mph - N/A   Overcast
9:53 AM 19.0 °F 7.5 °F 7.0 °F 59% 30.13 in 10.0 mi WNW 10.4 mph - N/A   Overcast
10:53 AM 19.9 °F 10.1 °F 7.0 °F 57% 30.13 in 10.0 mi West 8.1 mph - N/A   Overcast
11:53 AM 21.9 °F 11.7 °F 9.0 °F 58% 30.11 in 10.0 mi West 9.2 mph - N/A   Overcast
12:53 PM 24.1 °F 17.0 °F 10.9 °F 57% 30.08 in 10.0 mi WNW 5.8 mph - N/A   Mostly Cloudy
1:18 PM 26.6 °F 19.1 °F 12.2 °F 55% 30.03 in 10.0 mi West 6.9 mph - N/A   Scattered Clouds
1:53 PM 28.0 °F 21.7 °F 12.9 °F 53% 30.06 in 10.0 mi NW 5.8 mph - N/A   Partly Cloudy
2:53 PM 28.9 °F 22.8 °F 12.0 °F 49% 30.04 in 10.0 mi WSW 5.8 mph - N/A   Clear
3:53 PM 28.9 °F 20.4 °F 6.1 °F 38% 30.04 in 10.0 mi West 9.2 mph - N/A   Clear
4:53 PM 26.1 °F 20.5 °F 3.9 °F 39% 30.03 in 10.0 mi SW 4.6 mph - N/A   Clear
5:53 PM 21.0 °F 11.4 °F 5.0 °F 50% 30.04 in 10.0 mi SSW 8.1 mph - N/A   Clear
6:53 PM 19.9 °F 12.1 °F 6.1 °F 55% 30.04 in 10.0 mi South 5.8 mph - N/A   Clear
7:53 PM 17.1 °F 7.6 °F 6.1 °F 62% 30.04 in 10.0 mi South 6.9 mph - N/A   Clear
8:53 PM 16.0 °F 4.4 °F 6.1 °F 65% 30.05 in 10.0 mi South 9.2 mph - N/A   Clear
9:53 PM 16.0 °F 4.4 °F 6.1 °F 65% 30.04 in 10.0 mi South 9.2 mph - N/A   Clear
10:53 PM 16.0 °F 3.6 °F 6.1 °F 65% 30.04 in 10.0 mi South 10.4 mph - N/A   Clear
11:53 PM 17.1 °F 6.6 °F 6.1 °F 62% 30.03 in 10.0 mi South 8.1 mph - N/A   Clear